Tracking 19846 objects as of 18-Sep-2019
HD Live streaming from Space Station
objects crossing your sky now

OPS 8068

Track OPS 8068 now!
10-day predictions
OPS 8068 is classified as:


NORAD ID: 1580
Int'l Code: 1965-072A
Perigee: 638.0 km
Apogee: 976.2 km
Inclination: 98.4 °
Period: 100.9 minutes
Semi major axis: 7178 km
RCS: 0.631 m2 (medium)
Launch date: September 10, 1965
Source: United States (US)
Launch site: AIR FORCE WESTERN TEST RANGE (AFWTR)
aabbcc
Your satellite tracking list
Your tracking list is empty




NASA's NSSDC Master Catalog

Two Line Element Set (TLE):
1  1580U 65072A   19260.69334088 -.00000002  00000-0  13336-4 0  9996
2  1580  98.4322 120.8632 0235628 121.4542 240.9906 14.27545041801788
Source of the keplerian elements: AFSPC